Home > Weather > Moss > Past weeks

Flag for Norway Past Weather in Moss, Norway — Yesterday and Last 2 Weeks

Now
54 °F

Partly cloudy.


Feels Like: 51 °F
Forecast: 48 / 57 °F
Wind: 8 mph from Northeast

Location: Rygge

Current Time: Aug 28, 2016 at 11:01:45 PM

Latest Report: Aug 28, 2016 at 10:20 PM


Visibility: N/A

Pressure: 29.89 "Hg

Humidity: 94%

Dew Point: 52 °F

Location of MossLocation

Past Weather in Moss — Graph

°F

Moss Temperature Yesterday

Maximum temperature yesterday: 70 °F (at 1:50 PM)
Minimum temperature yesterday: 52 °F (at 11:50 PM)
Average temperature yesterday: 62 °F

High & Low Weather Summary for the Past Weeks

 TemperatureHumidityPressure
High73 °F (Aug 16, 5:50 PM)100% (Aug 15, 1:50 AM)30.27 "Hg (Aug 15, 1:50 AM)
Low48 °F (Aug 28, 2:50 AM)38% (Aug 16, 6:20 PM)29.71 "Hg (Aug 26, 2:50 PM)
Average62 °F78%30.02 "Hg
* Reported Aug 13 9:20 PM — Aug 28 9:50 PM, Moss, Weather by CustomWeather, © 2016

Note: Actual official high and low records may vary slightly from our data, if they occured in-between our weather recording intervals... More about our weather records

Advertising

Moss Weather History for the Previous 24 Hours

Scroll right to see more
 ConditionsComfort  
Time TempWeatherWind HumidityBarometerVisibility
9:50 PM
Sun, Aug 28
54 °FLight rain. Partly cloudy.9 mph94%29.92 "HgN/A
9:20 PM54 °FLight rain. Broken clouds.10 mph94%29.92 "HgN/A
8:50 PM54 °FLight rain. Partly sunny.10 mph94%29.92 "HgN/A
7:50 PM55 °FPartly sunny.8 mph88%29.92 "HgN/A
7:20 PM55 °FBroken clouds.9 mph88%29.95 "HgN/A
6:50 PM55 °FBroken clouds.10 mph88%29.95 "HgN/A
6:20 PM55 °FBroken clouds.8 mph94%29.98 "HgN/A
5:50 PM55 °FBroken clouds.7 mph94%29.98 "HgN/A
5:20 PM55 °FDrizzle. Partly sunny.10 mph88%29.98 "HgN/A
4:50 PM57 °FDrizzle. Partly sunny.12 mph88%29.98 "HgN/A
4:20 PM59 °FPartly sunny.8 mph88%30.01 "HgN/A
3:50 PM59 °FBroken clouds.7 mph88%30.01 "HgN/A
3:20 PM59 °FBroken clouds.8 mph88%30.01 "HgN/A
2:50 PM59 °FBroken clouds.8 mph88%30.04 "HgN/A
2:20 PM57 °FBroken clouds.7 mph94%30.04 "HgN/A
1:50 PM57 °FLight rain. More clouds than sun.8 mph94%30.04 "HgN/A
1:20 PM57 °FLight rain. Partly sunny.7 mph94%30.04 "HgN/A
12:50 PM57 °FLight rain. Low clouds.8 mph94%30.04 "HgN/A
12:20 PM57 °FLight rain. Partly sunny.6 mph94%30.04 "HgN/A
11:50 AM57 °FLight rain. Low clouds.7 mph94%30.04 "HgN/A
11:20 AM57 °FLight rain. Broken clouds.7 mph94%30.04 "HgN/A
10:50 AM57 °FLow clouds.5 mph94%30.04 "HgN/A
10:20 AM57 °FMostly cloudy.8 mph94%30.04 "HgN/A
9:50 AM55 °FLow clouds.8 mph100%30.04 "Hg4 mi
9:20 AM55 °FFog.7 mph100%30.04 "Hg3 mi
8:50 AM55 °FFog.7 mph94%30.07 "Hg2 mi
8:20 AM55 °FFog.8 mph94%30.07 "Hg1 mi
7:50 AM55 °FFog.7 mph94%30.07 "Hg1 mi
7:20 AM54 °FFog.3 mph94%30.07 "Hg0 mi
6:50 AM52 °FFog.2 mph100%30.07 "Hg0 mi
6:20 AM52 °FFog.3 mph100%30.07 "Hg0 mi
5:50 AM52 °FFog.2 mph100%30.07 "Hg0 mi
5:20 AM52 °FFog.2 mph100%30.07 "Hg0 mi
4:50 AM52 °FFog.2 mph94%30.07 "Hg0 mi
4:20 AM50 °FFog.1 mph100%30.07 "Hg0 mi
3:50 AM50 °FFog.3 mph94%30.07 "Hg0 mi
3:20 AM48 °FPassing clouds.3 mph100%30.07 "HgN/A
2:50 AM48 °FCool.2 mph100%30.07 "HgN/A
2:20 AM50 °FCool.2 mph94%30.07 "HgN/A
1:50 AM50 °FCool.2 mph94%30.07 "HgN/A
1:20 AM50 °FPassing clouds.3 mph94%30.07 "HgN/A
12:50 AM50 °FCool.3 mph94%30.07 "HgN/A
11:50 PM
Sat, Aug 27
52 °FCool.2 mph88%30.07 "HgN/A
11:20 PM54 °FCool.2 mph82%30.07 "HgN/A
Weather by CustomWeather, © 2016

See weather overviewHow to use our weather pages